Location: Burgwalden
(48.2830°N, 10.7576°E)
Time: 02:25:56
(UTC+00:00)

ASTEX 1 - Pass Details

Date: 26 September 2023
Orbit: 717 x 740 km, 92.7° (Epoch: 04 December)

Event Time Altitude Azimuth Distance (km) Brightness Sun altitude
Rises 02:10:46 0° 2° (N) 3,183 7.2 -28.7°
Reaches altitude 10° 02:13:06 10° 360° (N) 2,252 6.3 -28.4°
Enters shadow 02:16:28 41° 341° (NNW) 1,058 4.2 -27.9°
